Doylestown, PA

2:58 AM EST on December 09, 2019 (GMT -0500)
Doylestown

Weather History for KDYL - October, 2019

Change the Weather History Date:

Wednesday, October 16, 2019

  Actual Average (WUND) Record (WUND)
Temperature  
Mean Temperature 55 °F -  
Max Temperature 64 °F - - (-1)
Min Temperature 46 °F - - (-1)
Degree Days  
Heating Degree Days 10    
Growing Degree Days 5 (Base 50)    
Moisture  
Dew Point 52 °F    
Average Humidity 88    
Maximum Humidity 93    
Minimum Humidity 68    
Precipitation  
Precipitation 1.34 in - - ()
Sea Level Pressure  
Sea Level Pressure 29.68 in    
Wind  
Wind Speed 4 mph (NNW)    
Max Wind Speed 20 mph    
Max Gust Speed 37 mph    
Visibility 8 miles    
Events Rain    
Averages and records for this station are not official NWS values.
T = Trace of Precipitation, MM = Missing Value Source: NWS Daily Summary

Daily Weather History Graph

Daily Weather History Graph

Search for Another Location

Airport or City:

Astronomy

Oct. 16, 2019 Rise Set
Actual Time 7:12 AM EDT 6:19 PM EDT
Civil Twilight 6:44 AM EDT 6:46 PM EDT
Nautical Twilight 6:13 AM EDT 7:18 PM EDT
Astronomical Twilight 5:41 AM EDT 7:49 PM EDT
Moon 8:11 PM EDT (10/16) 9:40 AM EDT (10/16)
Length of Visible Light 12h 02m
Length of Day
11h 07m
Waning Gibbous, 93% of the Moon is Illuminated
Oct 16
Waning Gibbous
Oct 21
Last Quarter
Oct 27
New
Nov 4
First Quarter
Nov 12
Full

Hourly Weather History & Observations

Time (EDT) Temp. Windchill Dew Point Humidity Pressure Visibility Wind Dir Wind Speed Gust Speed Precip Events Conditions
12:54 AM 48.0 °F - 44.1 °F 86% 30.04 in 10.0 mi Calm Calm - N/A   Clear
1:54 AM 46.9 °F - 43.0 °F 86% 30.04 in 10.0 mi Calm Calm - N/A   Clear
2:54 AM 46.9 °F - 43.0 °F 86% 30.02 in 10.0 mi Calm Calm - N/A   Clear
3:54 AM 46.9 °F - 45.0 °F 93% 29.99 in 10.0 mi NE 3.5 mph - N/A   Clear
4:52 AM 46.4 °F 44.3 °F 44.6 °F 93% 29.97 in 10.0 mi NNE 4.6 mph - N/A   Mostly Cloudy
4:54 AM 46.9 °F - 44.1 °F 90% 29.97 in 10.0 mi NNE 4.6 mph - N/A   Overcast
5:54 AM 48.0 °F - 45.0 °F 89% 29.97 in 10.0 mi NNE 4.6 mph - N/A   Overcast
6:17 AM 46.9 °F - 44.1 °F 90% 29.96 in 10.0 mi NNE 3.5 mph - N/A   Mostly Cloudy
6:27 AM 46.9 °F - 44.1 °F 90% 29.95 in 10.0 mi NNE 4.6 mph - N/A   Partly Cloudy
6:47 AM 46.9 °F - 45.0 °F 93% 29.94 in 10.0 mi NNE 3.5 mph - N/A   Mostly Cloudy
6:54 AM 48.0 °F - 45.0 °F 89% 29.94 in 10.0 mi Calm Calm - N/A   Mostly Cloudy
7:01 AM 48.0 °F - 45.0 °F 89% 29.92 in 10.0 mi Calm Calm - N/A   Overcast
7:54 AM 54.0 °F - 51.1 °F 90% 29.91 in 8.0 mi Calm Calm - N/A   Overcast
8:01 AM 54.0 °F - 52.0 °F 93% 29.90 in 7.0 mi Calm Calm - N/A   Overcast
8:41 AM 55.9 °F - 53.1 °F 90% 29.91 in 10.0 mi Variable 3.5 mph - N/A   Overcast
8:54 AM 55.9 °F - 53.1 °F 90% 29.91 in 9.0 mi Calm Calm - N/A   Overcast
9:24 AM 57.0 °F - 55.0 °F 93% 29.88 in 10.0 mi Calm Calm - N/A   Overcast
9:54 AM 57.9 °F - 55.0 °F 90% 29.85 in 10.0 mi Variable 4.6 mph - N/A   Overcast
10:41 AM 60.1 °F - 55.9 °F 86% 29.82 in 10.0 mi Calm Calm - N/A   Overcast
10:54 AM 61.0 °F - 57.0 °F 87% 29.81 in 10.0 mi Variable 5.8 mph - N/A   Overcast
11:34 AM 62.1 °F - 57.9 °F 86% 29.77 in 10.0 mi Variable 4.6 mph - N/A   Mostly Cloudy
11:54 AM 63.0 °F - 57.9 °F 84% 29.76 in 10.0 mi Calm Calm - N/A   Mostly Cloudy
12:49 PM 64.4 °F - 57.2 °F 77% 29.70 in 10.0 mi Variable 4.6 mph - 0.00 in Rain Light Rain
12:54 PM 64.9 °F - 57.9 °F 78% 29.70 in 9.0 mi Variable 3.5 mph - 0.00 in Rain Light Rain
1:54 PM 64.0 °F - 60.1 °F 87% 29.65 in 10.0 mi Calm Calm - 0.06 in Rain Light Rain
2:54 PM 63.0 °F - 60.1 °F 90% 29.62 in 8.0 mi Calm Calm - 0.07 in Rain Rain
3:54 PM 62.1 °F - 57.9 °F 86% 29.57 in 6.0 mi Calm Calm - 0.18 in Rain Rain
4:39 PM 61.0 °F - 57.0 °F 87% 29.50 in 3.0 mi Variable 4.6 mph - 0.17 in Rain Heavy Rain
4:54 PM 61.0 °F - 57.9 °F 90% 29.47 in 4.0 mi Calm Calm - 0.25 in Rain Heavy Rain
5:54 PM 60.1 °F - 57.0 °F 90% 29.39 in 4.0 mi Variable 4.6 mph - 0.32 in Rain Rain
6:02 PM 60.1 °F - 57.0 °F 90% 29.38 in 5.0 mi Variable 3.5 mph - 0.04 in Rain Rain
6:20 PM 60.1 °F - 57.0 °F 90% 29.35 in 6.0 mi Variable 3.5 mph - 0.14 in Rain Heavy Rain
6:54 PM 59.0 °F - 57.0 °F 93% 29.31 in 4.0 mi Variable 3.5 mph - 0.30 in Rain Rain
7:33 PM 59.0 °F - 55.9 °F 90% 29.33 in 2.5 mi NW 12.7 mph 21.9 mph 0.16 in Rain Rain
7:40 PM 59.0 °F - 55.9 °F 90% 29.32 in 7.0 mi NW 12.7 mph 20.7 mph 0.16 in Rain Light Rain
7:54 PM 57.9 °F - 55.9 °F 93% 29.32 in 7.0 mi NW 12.7 mph 20.7 mph 0.16 in Rain Light Rain
7:58 PM 57.9 °F - 55.9 °F 93% 29.32 in 8.0 mi NW 11.5 mph 17.3 mph 0.00 in Rain Light Rain
8:22 PM 55.0 °F - 52.0 °F 89% 29.33 in 8.0 mi NW 16.1 mph 34.5 mph 0.00 in Rain Light Rain
8:39 PM 52.0 °F - 48.9 °F 89% 29.32 in 10.0 mi NW 15.0 mph 33.4 mph 0.00 in   Overcast
8:54 PM 52.0 °F - 48.0 °F 86% 29.34 in 10.0 mi WNW 19.6 mph 32.2 mph 0.00 in   Overcast
9:54 PM 53.1 °F - 46.0 °F 77% 29.36 in 10.0 mi WNW 13.8 mph 29.9 mph N/A   Overcast
10:54 PM 52.0 °F - 44.1 °F 74% 29.36 in 10.0 mi WNW 19.6 mph 27.6 mph N/A   Overcast
11:54 PM 50.0 °F - 39.9 °F 68% 29.36 in 10.0 mi WNW 17.3 mph 36.8 mph N/A   Scattered Clouds